#timestamp,LO_Frequency,Hit,StdDev 
1586221215.4,286047002.9,N
1586221235.2,286047007.0,N
1586221255.1,286047008.4,N
1586221256.0,286047008.4,N
1586221275.8,286047008.1,N
1586221295.7,286047008.1,N
1586221315.5,286047009.4,N
1586221335.3,286047012.3,N
1586221355.2,286047011.2,N
1586221375.0,286047014.7,N
1586221375.9,286047014.7,N
1586221395.7,286047016.9,N
1586221415.6,286047015.4,N
1586221435.4,286047015.0,N
1586221455.3,286047015.4,N
1586221475.1,286047013.6,N
1586221476.0,286047013.6,N
1586221495.8,286047012.5,N
1586221515.7,286047014.7,N
1586221535.5,286047018.4,N
1586221555.3,286047019.7,Y
1586221575.2,286047010.7,P
1586221595.0,286047010.4,P
1586221595.9,286047010.4,P
1586221615.8,286047009.7,Y
1586221635.6,286047001.9,P
1586221655.4,286047004.4,N
1586221675.3,286047001.5,N
1586221695.1,286047004.0,N
1586221715.9,286047002.1,N
1586221735.7,286047002.0,N
1586221755.5,286047001.5,N
1586221775.4,286047001.9,N
1586221795.2,286047001.8,N
1586221815.0,286047002.1,N
1586221815.9,286047002.1,N
1586221835.8,286047001.8,N
1586221855.6,286047006.0,N
1586221875.5,286047006.5,N
1586221895.3,286047006.4,N
1586221915.1,286047004.8,N
1586221935.9,286047005.2,N
1586221955.7,286047004.7,N
1586221975.5,286047005.1,N
1586221995.4,286047005.6,N
1586222015.2,286047003.5,N
1586222035.1,286047000.7,N
1586222036.0,286047000.7,N
1586222055.8,286046998.3,N
1586222075.6,286046997.9,N
1586222095.5,286046991.9,Y
1586222115.3,286046989.1,P
1586222135.2,286046990.8,N
1586222155.9,286046993.0,N
1586222175.7,286046995.2,N
1586222195.6,286046997.3,N
1586222215.4,286046997.5,N
1586222235.2,286046994.9,N
1586222255.1,286046997.3,N
1586222256.0,286046997.3,N
1586222275.8,286046998.4,N
1586222295.7,286046997.8,N
1586222315.5,286046996.3,N
1586222335.3,286046998.8,N
1586222355.2,286046996.7,N
1586222375.0,286046998.5,N
1586222375.9,286046998.5,N
1586222395.7,286046996.7,N
1586222415.6,286046993.3,N
1586222435.4,286046995.8,N
1586222455.3,286046997.2,N
1586222475.1,286046995.2,N
1586222476.0,286046995.2,N
1586222495.8,286046999.5,N
1586222515.7,286047000.7,N
1586222535.5,286047001.3,N
1586222555.4,286047004.2,N
1586222575.2,286047007.3,N
1586222595.0,286047008.9,N
1586222595.9,286047008.9,N
1586222615.8,286047015.2,Y
1586222635.6,286047017.9,P
1586222655.5,286047018.1,N
1586222675.3,286047020.3,N
1586222695.1,286047018.4,N
1586222715.9,286047014.7,N
1586222735.7,286047014.4,N
1586222755.5,286047015.1,N
1586222775.4,286047015.0,N
1586222795.2,286047014.8,N
1586222815.1,286047012.6,N
1586222816.0,286047012.6,N
1586222835.8,286047012.2,N
1586222855.6,286047007.7,N
1586222875.5,286047006.1,N
1586222895.3,286047007.8,N
1586222915.1,286047010.0,N
1586222935.9,286047010.6,N
1586222955.7,286047007.8,N
1586222975.6,286047008.7,N
1586222995.4,286047007.0,N
1586223015.2,286047008.1,N
1586223035.1,286047007.8,N
1586223036.0,286047007.8,N
1586223055.8,286047010.7,N
1586223075.7,286047009.3,N
1586223095.5,286047010.9,N
1586223115.3,286047013.6,N
1586223135.2,286047011.9,N
1586223155.9,286047013.8,Y
1586223175.7,286047000.1,P
1586223195.6,286047000.7,N
1586223215.4,286047002.6,N
1586223235.3,286047000.1,N
1586223255.1,286047000.0,N
1586223256.0,286047000.0,N
1586223275.8,286047000.5,N
1586223295.7,286047000.9,N
1586223315.5,286046998.4,N
1586223335.3,286047002.6,N
1586223355.2,286047001.5,N
1586223375.0,286047004.1,N
1586223375.9,286047004.1,N
1586223395.8,286047004.0,N
1586223415.6,286047000.4,N
1586223435.4,286047000.2,N
1586223455.3,286047000.1,N
1586223475.1,286046998.1,N
1586223495.8,286046999.9,N
1586223515.7,286047000.2,N
1586223535.5,286046995.3,N
1586223555.4,286046995.0,N
1586223575.2,286046996.1,N
1586223595.0,286046996.9,N
1586223595.9,286046996.9,N
1586223615.8,286047002.3,N
1586223635.6,286047007.3,N
1586223655.4,286047009.5,N
1586223675.3,286047014.3,Y
1586223695.1,286047014.4,P
1586223715.9,286047014.8,N
1586223735.7,286047018.6,N
1586223755.5,286047019.5,N
1586223775.4,286047020.5,Y
1586223795.2,286047010.4,P
1586223815.1,286047010.1,P
1586223816.0,286047010.1,P
1586223835.8,286047013.2,Y
1586223855.6,286047007.1,P
1586223875.5,286047006.7,P
1586223895.3,286047005.1,N
1586223915.1,286047004.1,N
1586223935.9,286047001.8,N
1586223955.7,286047000.5,N
1586223975.6,286046997.9,N
1586223995.4,286046996.5,N
1586224015.2,286046994.9,N
1586224035.1,286046994.2,N
1586224036.0,286046994.2,N
1586224055.8,286046993.1,N
1586224075.6,286046993.7,N
1586224095.5,286046992.6,N
1586224115.3,286046990.3,N
1586224135.2,286046990.9,N
1586224155.9,286046991.0,N
1586224175.7,286046989.0,N
1586224195.6,286046989.1,N
1586224215.4,286046987.7,N
1586224235.2,286046989.0,N
1586224255.1,286046989.3,N
1586224256.0,286046989.3,N
1586224275.8,286046989.2,N
1586224295.7,286046989.3,N
1586224315.5,286046992.8,N
1586224335.3,286046993.5,N
1586224355.2,286046996.8,N
1586224375.0,286046996.8,N
1586224375.9,286046996.8,N
1586224395.8,286046999.0,N
1586224415.6,286046998.5,N
1586224435.4,286047000.7,N
1586224455.3,286047001.9,N
1586224475.1,286047000.6,N
1586224495.8,286046998.1,N
1586224515.7,286046997.0,N
1586224535.5,286046996.7,N
1586224555.4,286046998.9,N
1586224575.2,286047000.0,N
1586224595.0,286047002.3,N
1586224595.9,286047002.3,N
1586224615.8,286047002.3,N
1586224635.6,286046998.4,N
1586224655.4,286047000.3,N
1586224675.3,286047001.6,N
1586224695.1,286047002.1,N
1586224715.9,286047004.3,N
1586224735.7,286047004.2,N
1586224755.5,286047003.1,N
1586224775.4,286047002.9,N
1586224795.2,286047003.5,N
